Regional Weather Roundup
Issued by NWS

Home | Current Version | Previous Version | Graphics & Text | Print | Product List | Glossary On
Versions: 1 2 3 4 5 6 7 8 9 10 11 12 13 14 15 16 17 18 19 20 21 22 23 24 25 26 27 28 29 30 31 32 33 34 35 36 37 38 39 40 41 42 43 44 45 46 47 48 49 50
435
ASUS44 KLIX 311210
RWRLA
LOUISIANA WEATHER ROUNDUP
NATIONAL WEATHER SERVICE NEW ORLEANS LA
700 AM CDT THU JUL 31 2014

NOTE: "FAIR" INDICATES FEW OR NO CLOUDS BELOW 12,000 FEET WITH NO
      SIGNIFICANT WEATHER AND/OR OBSTRUCTIONS TO VISIBILITY.
      SKY/WX - SKY CONDITION AND SIGNIFICANT WEATHER.
      TMP - AIR TEMPERATURE.    DP   - DEWPOINT TEMPERATURE.
      RH  - RELATIVE HUMIDITY.  PRES - PRESSURE.
      HX  - HEAT INDEX.         WCI  - WIND CHILL INDEX.

*  THESE STATIONS ARE NOT NWS OR FAA STATIONS AND ARE NOT UNDER
   NWS QUALITY CONTROL.

LAZ040-048-061>063-065-066-069-311300-
SOUTHEAST LOUISIANA

CITY           SKY/WX    TMP DP  RH WIND       PRES   REMARKS
N.O. AUDUBON     N/A     77  67  72 MISG        N/A
6HR MIN TEMP:  75; 6HR MAX TEMP:  79;

N.O. INTL ARPT MOCLDY    73  65  75 CALM      30.01R HAZE
6HR MIN TEMP:  70; 6HR MAX TEMP:  76;

N.O. LAKEFRONT CLEAR     79  69  71 E9        30.02R
6HR MIN TEMP:  76; 6HR MAX TEMP:  81;

N.O. DOWNTOWN* FAIR      79  63  57 CALM      30.02R
6HR MIN TEMP:  79; 6HR MAX TEMP:  81;

SLIDELL        PTCLDY    66  63  90 CALM      30.02R
6HR MIN TEMP:  65; 6HR MAX TEMP:  68;

BATON ROUGE    CLOUDY    70  64  81 NE3       30.03R
6HR MIN TEMP:  69; 6HR MAX TEMP:  71;

BOOTHVILLE     PTCLDY    77  66  68 CALM      30.02R
6HR MIN TEMP:  74; 6HR MAX TEMP:  77;

BELLE CHASSE   MOCLDY    71  67  87 CALM      30.01R
6HR MIN TEMP:  68; 6HR MAX TEMP:  71;

BOGALUSA*      PTSUNNY   69  64  84 CALM      30.05R
6HR MIN TEMP:  67; 6HR MAX TEMP:  69;

GALLIANO*      NOT AVBL
NEW ROADS*     PTSUNNY   70  66  87 CALM      30.03R
6HR MIN TEMP:  69; 6HR MAX TEMP:  72;

GONZALES*      FAIR      67  67 100 CALM      30.01S
6HR MIN TEMP:  66; 6HR MAX TEMP:  70;

HAMMOND*       MOCLDY    70  61  73 CALM      30.05R
HOUMA*         CLOUDY    73  66  78 CALM      30.01R
PORT FOURCHON* PTSUNNY   81  64  57 CALM      30.02R

$$

LAZ041-044-053-054-311300-
SOUTHWEST LOUISIANA

CITY           SKY/WX    TMP DP  RH WIND       PRES   REMARKS
LAKE CHARLES   MOCLDY    73  68  84 E5        29.99S
6HR MIN TEMP:  72; 6HR MAX TEMP:  75;

LAFAYETTE      CLOUDY    71  67  87 CALM      30.02R
6HR MIN TEMP:  70; 6HR MAX TEMP:  73;

PATTERSON      MOCLDY    72  70  94 NE5       30.04S
6HR MIN TEMP:  70; 6HR MAX TEMP:  73;

SALT POINT       N/A     75  70  84 CALM      30.00R
6HR MIN TEMP:  75; 6HR MAX TEMP:  77;

NEW IBERIA     MOCLDY    73  67  81 CALM      30.02R
6HR MIN TEMP:  70; 6HR MAX TEMP:  76;

CHENAULT AIRPK NOT AVBL

$$

LAZ027-028-311300-
CENTRAL LOUISIANA

CITY           SKY/WX    TMP DP  RH WIND       PRES   REMARKS
FORT POLK      MOCLDY    73  63  70 E3        30.02S
6HR MIN TEMP:  72; 6HR MAX TEMP:  76;

ALEXANDRIA INT CLOUDY    72  66  81 NE5       30.03R
6HR MIN TEMP:  70; 6HR MAX TEMP:  77;

ALEXANDRIA     CLOUDY    72  66  81 E5        30.04
6HR MIN TEMP:  71; 6HR MAX TEMP:  73;


$$

LAZ001-002-311300-
NORTHWEST LOUISIANA

CITY           SKY/WX    TMP DP  RH WIND       PRES   REMARKS
SHREVEPORT     LGT RAIN  70  66  88 SE5       30.03R FOG
6HR MIN TEMP:  70; 6HR MAX TEMP:  76; 6HR PCP:  0.08;

BARKSDALE AFB  CLOUDY    70  65  83 CALM      30.04R
6HR MIN TEMP:  69; 6HR MAX TEMP:  73;

DTN SHREVEPORT CLOUDY    71  65  81 E3        30.04R
6HR MIN TEMP:  70; 6HR MAX TEMP:  74; 6HR PCP: TRACE;


$$

LAZ014-016-311300-
NORTHEAST LOUISIANA

CITY           SKY/WX    TMP DP  RH WIND       PRES   REMARKS
MONROE         CLOUDY    70  67  90 E6        30.07R
6HR MIN TEMP:  70; 6HR MAX TEMP:  72; 6HR PCP: TRACE;

TALLULAH       LGT RAIN  70  66  87 NW3       30.08R
6HR MIN TEMP:  69; 6HR MAX TEMP:  74; 6HR PCP: TRACE;


$$




USA.gov is the U.S. government's official web portal to all federal, state and local government web resources and services.